Wind_Speed
22 23 23 22 21 20 19 19 19 18 17 16 17 18 19 23 25 23 22 22 22 22 22 22 22 20 20 20 20 20 20 19 18 17 17 16 16 15 14 13 12 11 11 11 12 11 11 11 11 11 11 10 11 11 12 12 12 12 12 12 11 11 12 13 15 16 18 20 22 24 25 26 27 29 29 29 30 31 33 33 34 34 33 33 34
22 23 24 23 22 21 20 19 19 18 17 17 18 19 21 23 24 24 23 22 22 22 22 22 21 20 20 20 20 20 20 19 18 18 17 16 16 15 15 14 12 12 12 12 12 11 11 11 11 11 11 10 11 11 12 12 12 12 12 11 11 11 12 14 15 17 18 20 22 24 26 27 28 29 30 31 32 33 34 34 35 35 34 33 34
22 23 25 24 22 22 20 19 18 18 18 19 19 21 22 23 23 23 23 22 23 22 22 22 21 20 20 20 21 20 20 19 18 17 17 17 16 15 15 14 13 13 13 13 12 12 11 11 11 11 10 10 11 11 12 12 12 12 12 12 12 12 13 14 16 17 19 21 23 23 25 26 28 29 30 32 33 33 34 35 35 35 34 34 34
23 24 24 24 23 21 20 19 18 18 19 19 20 22 23 23 23 24 23 23 23 22 22 21 20 20 20 20 20 20 19 18 17 17 17 17 16 16 15 14 14 14 14 14 13 12 12 12 11 11 10 11 11 11 12 12 12 12 12 12 12 13 14 15 17 18 19 21 23 24 25 26 28 30 31 32 33 33 34 34 34 34 34 34 34
24 24 24 24 23 22 20 19 18 18 19 20 21 22 24 24 25 25 24 24 24 22 21 20 19 19 19 20 20 19 19 18 17 17 17 17 17 16 16 15 15 15 15 14 13 12 12 12 12 11 11 11 11 11 12 12 12 12 12 12 13 14 15 16 17 19 21 22 23 24 26 27 28 30 32 33 34 34 33 33 34 34 34 35 34
25 24 23 24 24 22 21 19 18 19 20 21 22 22 23 25 27 26 25 24 23 21 20 19 19 19 19 19 19 19 19 18 18 18 18 18 18 17 16 16 16 16 16 15 14 13 13 12 12 11 11 11 11 12 12 12 12 12 12 12 13 14 16 17 18 20 22 23 24 25 26 27 29 30 32 34 35 36 35 34 34 34 34 35 35
24 23 23 24 25 23 21 19 19 20 21 22 23 23 24 26 27 26 24 24 22 20 19 19 19 19 20 20 19 19 19 19 18 18 18 19 19 18 18 18 17 17 16 16 15 14 13 13 12 12 12 12 12 12 13 12 12 12 12 12 13 15 16 18 19 21 22 24 25 26 27 28 29 31 32 33 33 35 36 36 36 35 35 36 36
24 23 24 25 26 24 21 20 20 20 21 23 24 24 24 26 27 25 23 22 20 19 20 20 20 21 20 20 20 20 20 20 19 19 19 19 19 19 19 19 18 17 17 16 16 15 13 13 12 12 13 12 12 13 13 13 12 11 12 12 13 15 17 18 20 21 22 24 24 26 27 28 29 30 32 33 33 34 36 38 39 38 37 36 36
23 23 24 26 26 24 22 22 21 20 21 23 25 25 26 26 26 25 24 22 21 21 22 22 22 23 21 21 20 20 21 21 20 19 20 20 19 20 20 20 19 18 17 17 17 15 14 13 13 13 13 12 12 13 13 13 12 11 11 12 13 15 17 18 20 21 23 23 24 25 26 28 30 31 32 33 35 36 37 38 37 38 38 36 35
24 24 25 27 27 25 24 23 22 21 22 23 25 26 26 26 25 25 25 23 23 23 23 23 24 24 23 22 21 21 21 21 20 20 20 20 20 21 22 21 20 19 18 18 18 16 15 14 14 14 14 13 12 13 14 13 12 11 11 12 13 15 16 18 20 21 22 23 23 25 26 28 29 31 32 34 36 37 37 37 37 37 38 37 37
24 25 27 28 28 26 25 24 23 22 22 24 26 26 26 26 25 25 25 24 24 25 25 25 26 26 25 23 21 21 22 22 21 21 21 21 21 22 22 22 21 20 19 19 19 17 16 15 15 15 14 13 13 13 13 13 12 12 12 12 13 14 15 17 19 21 22 23 23 24 26 27 29 31 33 34 35 36 36 36 37 37 38 39 40
25 27 28 29 29 27 26 26 24 22 23 25 25 25 25 26 25 25 25 25 26 27 27 26 27 27 27 25 23 22 22 22 22 21 22 22 23 23 23 23 23 21 20 20 19 18 17 16 16 15 14 14 13 13 13 13 12 12 12 12 12 14 15 17 19 19 20 21 22 24 25 27 29 31 33 34 35 35 35 36 36 37 38 40 42
26 28 29 30 30 29 27 26 24 22 23 24 24 24 25 26 25 25 26 27 27 27 27 27 28 28 28 26 25 24 24 23 22 22 23 23 24 25 25 25 24 22 21 21 20 19 18 17 17 16 15 14 14 13 13 13 12 12 12 12 12 14 15 17 18 18 19 20 21 23 25 26 29 31 33 34 35 35 36 37 37 37 38 39 41
26 28 30 31 31 30 28 26 24 23 23 23 23 24 25 25 25 26 27 28 27 27 27 28 28 29 30 29 27 25 24 24 23 24 24 24 25 26 26 26 25 23 21 21 21 20 19 19 18 17 16 15 14 13 13 13 12 12 12 12 12 13 15 16 17 17 18 19 20 22 24 27 29 30 31 33 35 36 37 38 37 38 38 38 38
27 29 30 31 31 30 28 25 24 24 23 23 23 24 25 24 25 26 28 28 27 27 28 29 30 31 33 32 30 27 26 26 26 25 25 26 26 27 27 27 25 24 22 22 22 21 21 20 19 17 17 16 14 14 13 13 13 12 11 11 11 12 14 15 15 15 16 17 19 21 24 26 27 28 30 33 35 36 37 37 37 38 37 36 36
28 29 30 31 31 29 27 25 24 23 23 23 24 25 25 25 25 27 27 27 27 28 30 31 32 34 35 34 33 31 31 30 29 27 27 27 28 29 29 27 26 26 24 22 22 22 22 21 20 18 17 16 15 14 14 13 13 12 11 10 11 12 13 14 14 15 16 17 19 21 23 24 24 27 30 33 35 36 36 36 36 36 36 36 36
28 29 29 29 28 27 25 24 23 24 23 23 24 25 26 26 27 27 27 27 27 28 30 32 33 34 35 35 35 36 37 35 31 29 29 29 29 30 30 29 29 29 27 23 22 23 23 22 21 18 17 16 16 15 14 13 12 12 11 11 11 12 13 14 14 15 16 17 19 20 21 22 23 26 29 31 34 36 37 37 36 35 36 37 38
28 28 27 27 25 25 24 24 24 24 23 23 24 26 27 28 28 28 28 28 28 29 31 32 34 34 35 36 38 38 38 35 31 30 31 31 31 31 31 30 30 31 29 24 22 24 24 22 21 19 17 17 17 15 14 13 12 12 11 10 11 12 12 13 14 15 16 17 18 18 19 20 23 25 28 30 32 34 36 36 35 35 35 37 38
27 27 26 25 25 25 24 23 23 24 24 24 25 27 28 29 29 29 29 29 29 30 30 31 32 32 31 33 33 31 31 31 30 31 33 33 32 30 30 29 29 31 30 25 23 25 25 22 21 19 18 18 18 16 15 14 12 11 10 10 11 11 12 13 14 15 16 17 17 18 19 20 22 24 26 28 30 32 33 33 33 34 36 37 38
26 27 26 26 26 25 24 23 24 24 24 25 27 28 29 30 29 29 31 31 30 30 29 29 29 29 28 28 28 26 26 27 30 33 34 34 31 29 29 29 30 32 31 26 23 25 25 22 22 21 19 19 18 16 15 14 13 12 11 10 11 11 12 13 15 16 17 17 18 19 19 19 21 22 24 25 27 28 29 31 33 35 36 36 37
25 26 26 26 24 23 23 24 25 25 25 26 28 30 30 29 30 30 31 31 30 28 27 27 27 27 27 27 27 27 25 26 29 32 32 32 31 30 29 30 33 35 31 24 23 25 24 22 22 21 20 20 19 17 16 15 13 12 11 11 10 11 12 13 15 17 17 17 18 18 18 18 19 21 22 24 25 26 28 30 32 33 33 35 36
22 23 23 23 22 22 24 26 26 26 27 28 29 29 29 29 29 29 29 30 29 27 26 27 28 28 28 28 27 25 22 22 24 27 27 29 30 31 30 31 36 36 30 24 24 26 25 23 22 22 22 21 20 19 17 16 14 13 12 11 10 11 12 13 16 17 17 17 18 17 17 18 19 20 22 23 24 25 28 29 30 30 30 32 33
20 20 20 21 21 22 24 25 26 27 28 28 28 28 27 26 26 26 28 28 27 26 27 28 28 29 28 27 26 23 19 18 20 23 25 28 30 30 30 32 35 34 28 24 25 26 25 23 22 23 23 22 21 20 18 17 16 14 12 11 11 11 13 14 16 17 17 18 17 16 17 18 19 20 21 23 24 26 28 28 28 28 28 28 29
18 18 19 20 20 21 23 24 25 26 26 26 25 25 24 23 23 25 27 27 28 30 30 29 30 29 26 23 22 21 19 18 20 23 27 29 30 31 30 30 31 30 27 26 26 26 25 23 20 21 23 22 21 21 20 18 16 15 12 11 11 13 14 16 17 17 18 18 16 16 17 18 19 20 21 23 24 25 27 27 28 28 28 27 28
16 16 16 17 17 19 20 21 22 22 22 22 22 22 22 22 24 27 29 30 32 32 31 31 31 28 24 22 22 22 21 20 22 25 28 29 30 30 30 29 28 27 28 29 28 26 26 23 20 19 21 22 22 21 21 19 17 15 13 12 12 14 16 17 18 17 18 17 15 15 16 17 18 20 21 22 24 25 26 26 27 29 29 29 29
13 13 14 14 15 17 17 18 18 19 19 20 20 20 21 23 28 31 31 29 29 30 31 32 30 27 25 24 23 22 21 20 20 23 27 28 29 30 30 29 27 28 29 30 28 27 26 24 21 21 22 23 23 22 21 19 17 15 14 13 14 15 17 18 19 18 18 16 14 15 16 16 18 19 20 22 23 25 25 26 27 29 30 30 31
13 14 14 15 16 17 17 16 16 17 18 18 18 18 19 21 24 25 23 23 25 27 30 30 29 26 24 22 20 20 20 20 19 21 24 27 28 30 31 29 28 30 31 30 28 26 25 24 24 24 25 25 24 23 21 19 17 16 15 15 16 17 17 18 19 19 18 15 13 14 15 16 18 19 20 21 22 23 24 26 27 28 29 31 31
15 15 16 17 17 17 16 16 16 17 17 16 16 16 17 18 19 18 18 21 25 25 25 25 25 23 21 19 19 21 22 22 21 21 23 25 26 29 31 30 30 30 31 29 28 27 27 26 26 27 27 26 25 23 21 20 18 17 16 16 17 17 18 19 20 20 18 15 14 14 15 16 18 19 19 20 21 22 23 25 26 27 28 30 31
16 16 16 17 17 17 17 17 17 18 18 17 17 17 17 17 18 18 18 22 25 25 24 23 22 22 21 21 22 22 22 22 21 19 20 22 26 29 31 30 29 29 29 29 29 30 29 28 28 28 28 27 25 23 21 20 19 18 17 17 17 16 17 20 20 19 17 16 15 15 15 16 17 18 18 19 19 21 22 24 25 26 27 29 30
17 17 17 18 18 18 19 19 18 18 19 18 18 18 17 17 18 18 17 20 22 23 23 23 22 22 23 22 21 21 21 21 19 17 18 21 24 27 28 28 29 30 30 31 32 32 31 30 29 29 28 28 27 25 23 22 21 19 18 18 18 18 18 19 18 16 15 15 15 15 15 15 16 17 17 18 19 20 22 23 24 25 27 28 29
19 19 19 19 19 19 19 19 19 19 19 19 18 18 18 19 19 18 16 16 17 19 21 22 23 24 24 23 22 21 22 20 18 16 18 20 23 25 25 27 29 30 31 33 34 34 33 31 30 29 28 29 29 27 25 24 22 20 19 19 19 19 18 19 18 17 17 16 15 15 16 16 16 16 17 18 19 20 21 22 23 24 25 27 28
21 21 20 20 20 19 19 19 19 19 19 19 19 19 20 19 19 18 16 16 17 19 20 22 23 24 23 21 20 20 19 17 15 16 19 21 22 23 24 25 28 30 32 34 35 35 34 33 32 30 29 30 30 28 26 25 23 21 20 19 18 17 17 18 18 19 19 17 16 16 16 16 16 17 17 19 20 20 21 22 23 24 25 26 26
22 21 21 20 20 19 18 19 19 19 19 20 20 21 21 20 18 17 18 19 19 19 21 22 22 21 20 18 18 18 16 14 14 16 19 21 22 23 23 24 27 30 32 34 35 35 35 35 33 32 31 31 30 28 27 27 26 24 23 22 20 18 17 18 18 19 20 19 17 16 16 16 17 17 18 18 18 19 20 20 21 22 24 25 25
22 21 20 19 19 18 17 18 19 20 20 21 21 22 21 21 19 18 20 21 21 21 22 21 21 21 21 19 18 18 17 17 17 18 19 21 22 23 23 24 26 29 31 33 35 36 36 35 34 32 32 32 31 30 30 30 28 26 25 25 22 19 18 19 19 20 21 20 19 18 18 18 18 18 18 17 16 17 18 19 20 22 23 23 24
22 20 18 17 17 17 17 18 19 20 20 20 20 20 21 22 22 21 20 21 22 22 22 22 24 26 25 22 18 17 18 19 19 19 19 20 21 21 22 23 24 27 30 32 34 35 35 34 33 32 33 33 32 32 32 31 29 28 28 27 24 20 19 19 19 20 21 21 20 20 19 19 19 19 18 18 17 18 19 21 21 22 21 21 22
18 17 16 16 17 18 18 19 20 20 18 16 15 15 16 18 19 18 17 19 21 22 22 23 25 27 25 21 18 18 18 18 18 18 19 21 22 22 22 22 24 27 30 32 33 34 34 33 33 33 34 34 32 32 33 32 30 29 29 29 26 22 20 19 19 20 21 20 20 20 20 20 20 20 20 19 19 19 20 20 19 19 19 20 21
16 16 17 17 17 18 19 19 18 16 14 12 12 12 13 13 14 14 14 16 18 18 19 19 20 21 21 20 21 21 20 19 19 19 19 21 21 21 21 22 23 26 29 31 32 33 33 33 33 34 35 34 33 32 33 33 31 30 30 29 27 24 21 19 19 19 20 20 20 21 22 21 21 21 21 21 20 19 19 19 19 19 19 20 21
17 17 17 17 17 18 18 16 15 13 12 11 11 11 11 12 12 12 12 14 15 17 19 20 22 22 22 22 24 25 24 22 20 19 19 20 20 20 20 21 22 24 26 28 29 31 32 33 34 35 35 34 33 33 34 34 32 31 31 30 28 26 23 20 18 18 18 19 20 22 22 22 21 21 22 21 20 18 18 19 19 20 20 21 21
15 16 16 16 16 15 14 13 13 13 12 12 11 10 10 11 12 12 13 14 15 18 21 23 25 24 23 23 23 24 23 22 20 19 20 20 20 21 22 21 21 23 25 26 27 29 30 32 33 34 34 33 33 34 35 34 33 33 32 31 30 28 26 22 19 18 18 19 20 22 22 21 21 22 22 21 19 18 18 18 19 20 20 21 21
13 14 15 14 13 12 11 11 12 12 12 12 12 11 11 12 13 14 15 16 17 18 21 23 22 20 21 22 23 23 23 23 22 22 23 22 22 23 24 23 21 22 23 24 25 26 27 30 32 33 33 33 34 35 35 34 34 34 33 32 32 30 28 25 21 19 19 20 21 22 22 21 21 22 22 21 20 19 18 18 18 19 20 20 21
12 11 12 12 12 12 11 11 12 12 12 12 13 12 12 12 13 13 14 16 18 18 20 22 22 21 21 22 22 23 26 27 27 26 26 25 24 25 25 23 21 22 23 24 24 24 26 29 31 33 33 34 34 34 35 36 36 35 34 33 33 32 30 27 23 20 19 20 21 22 21 21 22 22 22 21 21 20 19 18 18 18 18 18 19
10 10 11 11 11 12 12 12 12 12 12 13 13 14 13 12 12 12 13 14 15 15 16 18 20 22 23 21 20 23 28 30 29 28 26 24 24 24 24 23 23 24 25 25 24 24 26 28 31 34 35 35 34 35 37 38 36 34 33 33 33 33 32 29 25 21 19 21 22 22 21 21 22 22 22 22 22 21 19 18 18 17 17 18 19
9 10 11 11 12 13 12 13 13 14 13 13 14 14 13 12 12 13 13 13 14 15 16 16 17 20 23 22 22 23 26 27 27 27 26 24 23 22 22 24 24 24 25 25 24 25 27 30 33 35 36 35 36 37 38 36 33 31 31 31 31 32 31 29 25 21 20 21 23 23 23 23 23 23 22 22 22 22 21 19 18 18 18 20 21
10 12 13 13 13 14 14 14 14 14 14 13 13 14 14 13 12 12 12 13 13 14 15 16 17 20 22 22 21 21 21 22 24 26 26 24 23 21 21 22 23 22 22 22 23 24 27 29 32 35 36 36 36 36 36 33 30 28 27 28 28 29 28 27 24 22 21 23 24 24 24 25 25 24 23 22 22 22 21 19 18 18 18 20 21
13 13 14 15 14 14 14 15 15 14 14 14 14 13 13 13 12 12 12 13 14 14 15 16 17 17 18 18 17 17 17 19 22 24 24 24 24 22 20 20 21 21 20 20 21 23 25 27 29 32 33 34 34 33 32 29 26 24 24 25 26 26 26 24 23 22 23 25 25 25 25 26 26 24 23 22 21 21 20 18 18 18 19 20 22
14 14 15 15 15 15 16 16 16 15 15 14 14 13 12 13 13 13 13 14 15 15 15 15 15 15 16 15 15 16 17 19 21 23 24 25 24 21 18 18 20 20 20 20 20 21 23 26 27 28 29 30 30 29 27 25 23 23 23 23 24 25 24 24 23 23 24 26 26 26 26 27 26 23 21 21 21 20 19 18 18 19 20 22 23
17 17 17 16 15 16 16 17 17 17 16 15 15 14 13 14 15 15 15 14 14 14 14 13 14 15 15 15 15 16 18 19 19 21 22 23 21 19 17 17 18 18 19 20 21 22 24 25 26 27 27 27 27 25 23 22 21 21 22 23 23 23 23 23 24 24 26 27 27 27 27 27 25 22 20 20 20 19 19 19 20 21 22 23 24
16 19 21 20 19 18 17 17 17 18 17 16 15 15 15 16 16 16 16 15 14 13 14 14 14 14 15 15 15 16 17 17 18 19 19 20 20 21 19 17 17 17 19 20 21 22 24 25 25 25 25 24 23 22 21 20 20 21 21 22 21 21 21 22 23 25 27 27 26 26 26 26 24 22 20 19 19 19 20 20 21 21 23 24 25
16 20 23 24 23 22 20 19 18 18 18 17 16 15 16 17 17 17 18 18 15 13 14 16 15 15 14 13 13 14 14 15 16 18 18 18 19 19 18 17 17 18 19 20 21 21 21 22 22 21 20 20 20 20 19 19 19 20 20 19 19 19 20 23 25 27 27 27 26 25 24 24 23 22 21 20 20 20 21 21 21 22 24 25 25
18 21 23 24 24 25 24 21 19 17 17 18 17 16 16 18 19 19 18 17 15 14 15 17 16 15 13 12 13 14 14 14 15 16 17 17 17 16 17 18 19 19 20 20 19 18 16 16 16 16 16 17 17 17 16 16 16 16 17 18 19 21 23 25 27 28 28 27 26 25 23 22 22 22 22 21 21 21 21 22 23 24 25 26 27
21 23 24 23 23 22 21 19 17 15 14 15 16 16 16 18 19 18 16 15 14 14 15 16 15 13 12 12 14 15 16 16 16 17 17 18 18 18 19 19 19 20 20 19 16 13 11 11 12 13 14 14 14 14 14 15 15 16 17 19 21 23 25 27 27 27 27 25 23 21 21 21 21 21 21 21 21 22 23 24 25 26 27 28 29
Wind_Direction
228 228 229 231 231 232 236 239 239 239 238 237 235 228 214 207 213 219 216 216 221 226 230 233 235 241 248 253 256 257 259 261 261 262 264 266 267 266 267 268 270 273 278 284 292 297 299 301 304 304 303 301 300 302 305 306 309 313 315 316 316 317 318 322 323 325 327 327 327 328 330 331 331 332 334 336 336 336 336 336 336 337 341 344 343
231 230 229 230 230 231 236 238 238 237 235 234 232 222 211 207 213 219 219 220 224 228 230 235 240 245 251 254 256 257 258 258 258 260 263 265 264 265 267 268 269 272 277 283 289 292 295 297 299 298 297 296 297 299 301 304 307 310 311 313 315 317 320 322 323 326 326 325 326 328 329 330 331 333 335 337 338 338 337 337 336 337 340 343 343
233 233 231 230 229 229 235 238 235 233 233 233 230 220 213 212 217 222 223 222 225 229 232 238 244 249 253 255 255 256 256 255 257 260 262 263 263 264 266 267 268 271 275 281 285 288 291 293 293 292 291 292 293 295 298 302 305 308 310 314 318 321 322 323 324 325 325 324 325 327 329 330 333 336 338 339 340 339 338 337 337 338 340 342 344
233 233 232 230 228 229 234 237 235 232 233 233 230 222 217 217 220 224 225 225 227 231 236 242 248 253 256 256 255 255 254 254 257 259 261 263 263 263 264 264 266 269 273 277 280 284 288 288 288 287 286 288 290 293 297 301 304 308 314 318 322 324 325 325 325 325 324 325 326 328 331 334 337 338 340 340 340 340 338 337 339 340 340 342 346
233 232 232 229 228 230 233 235 235 233 232 232 230 225 221 219 223 226 226 227 230 234 239 245 251 256 258 257 255 253 253 254 256 259 261 262 261 262 263 263 265 267 270 274 278 281 284 284 283 282 282 285 289 292 296 300 304 310 316 321 324 326 327 327 327 326 326 327 328 331 335 338 340 341 341 341 339 338 339 340 341 342 342 343 347
233 232 231 229 228 232 234 235 235 233 231 230 229 228 223 221 224 226 227 229 232 237 242 248 253 258 259 258 255 254 254 255 257 259 261 261 261 262 262 262 263 265 268 271 274 278 279 279 279 279 279 283 288 291 294 298 303 309 316 322 326 328 328 329 328 328 328 329 332 335 338 341 342 342 342 342 340 338 339 342 344 344 344 345 347
233 231 229 228 229 232 235 236 235 232 230 228 229 230 226 223 225 227 228 231 235 240 246 251 254 258 260 259 258 257 256 257 258 259 260 260 260 261 261 261 261 262 266 269 272 274 275 275 276 275 276 280 285 288 292 296 301 309 316 322 327 329 329 329 329 329 330 332 334 337 340 342 343 343 342 341 340 339 340 342 344 345 347 347 346
231 229 226 227 230 232 233 235 235 232 230 228 228 230 228 226 227 229 231 234 238 242 247 251 252 256 261 261 260 258 257 258 258 258 259 260 261 261 260 260 261 262 264 267 269 271 271 271 271 271 272 276 281 286 289 293 299 307 315 322 326 329 328 328 329 330 331 333 336 339 341 342 342 342 342 340 340 343 344 344 344 345 348 349 347
228 227 225 226 230 230 231 234 235 232 230 228 228 229 229 229 229 231 234 236 238 242 246 249 250 253 259 260 259 256 255 256 256 257 259 260 260 261 260 260 261 261 263 266 268 269 267 266 265 266 269 271 277 283 286 291 298 306 314 320 325 328 328 328 329 330 332 334 337 340 341 342 341 341 342 342 344 347 347 345 344 345 347 348 348
226 225 224 226 229 230 230 233 236 234 231 230 230 230 230 231 232 233 236 238 240 244 248 250 251 253 257 259 258 255 254 255 255 256 258 259 259 259 260 260 260 259 261 265 267 266 264 262 261 262 265 268 273 279 283 289 295 303 311 317 324 327 327 328 329 330 332 335 337 340 342 342 342 342 344 346 348 348 346 344 345 347 346 345 349
224 224 224 226 228 230 231 233 236 236 231 230 231 230 231 234 235 236 238 241 243 247 251 253 254 256 258 261 261 257 255 255 255 255 255 256 257 258 258 259 258 258 260 264 266 265 261 259 259 258 261 264 269 274 280 286 293 301 308 315 322 325 326 328 329 330 333 336 338 341 343 343 344 345 347 349 349 348 346 346 348 349 347 347 350
221 222 224 226 228 231 233 235 238 236 231 230 231 232 234 236 237 238 241 244 245 248 253 256 257 259 261 265 265 261 258 257 255 254 254 254 255 257 257 257 256 255 258 262 264 263 260 257 256 255 258 261 265 270 276 283 291 298 304 312 319 323 326 327 328 330 334 335 337 341 343 345 347 349 349 350 350 349 348 349 351 351 351 352 351
222 221 223 226 229 231 233 237 238 236 234 233 233 235 236 238 239 240 244 247 248 251 255 259 261 262 263 265 265 261 259 257 254 253 254 254 255 256 256 256 256 255 256 261 263 262 260 257 254 254 255 258 262 267 272 279 286 294 302 310 318 323 326 326 327 332 333 334 339 342 344 347 350 351 351 350 351 351 351 352 352 352 355 355 351
222 221 223 226 229 232 234 236 237 236 238 237 235 236 238 240 241 241 245 249 250 253 258 261 264 265 264 264 264 262 259 257 254 252 253 254 254 255 256 256 256 255 256 260 262 262 260 257 253 252 253 255 259 263 269 275 282 291 301 310 318 323 324 325 328 330 331 335 341 343 346 351 353 351 351 352 353 354 355 354 353 354 356 355 351
223 222 222 224 228 233 235 236 237 239 241 240 237 237 240 242 243 244 248 251 252 255 258 261 263 264 264 264 264 263 260 255 251 249 250 252 252 252 254 255 255 255 256 259 261 261 259 257 254 251 251 253 256 260 265 270 278 287 296 303 314 319 320 322 323 324 331 337 341 345 351 354 351 350 352 354 355 357 357 356 355 355 354 353 353
224 224 225 225 227 231 235 238 239 241 244 243 241 241 242 244 247 249 252 253 254 257 259 261 263 265 269 270 269 265 258 249 244 244 246 248 249 251 252 253 253 251 251 253 257 258 258 257 254 251 251 253 255 258 263 268 276 285 292 301 312 317 319 322 323 329 338 340 342 350 353 348 346 351 355 356 357 358 358 357 357 355 352 352 355
226 229 230 229 228 231 235 239 240 242 245 245 245 245 245 248 251 254 256 256 256 258 260 261 264 267 271 273 271 265 255 244 235 236 240 242 244 248 251 252 252 252 250 249 253 257 257 256 255 253 252 254 256 259 264 270 279 287 293 305 316 320 324 327 329 336 339 338 343 350 345 339 345 354 357 358 359 359 358 358 357 354 352 353 356
229 233 234 233 231 232 236 239 240 242 245 246 247 248 249 251 254 256 257 257 257 259 260 262 265 269 273 276 276 272 265 254 243 238 237 236 237 243 248 251 253 255 254 251 251 255 256 255 255 252 250 253 256 259 265 270 278 286 293 305 315 323 328 328 330 334 332 334 343 342 332 336 349 356 359 1 2 0 359 359 356 354 354 356 356
231 235 237 235 234 233 236 240 242 243 245 246 248 250 251 253 255 256 258 259 259 260 262 265 270 275 280 282 284 282 276 268 260 253 248 244 242 244 247 250 252 253 252 248 248 252 254 253 255 253 250 253 256 259 264 270 276 283 291 302 312 322 326 325 328 329 327 333 338 331 328 342 354 357 360 4 4 3 1 359 356 356 357 358 357
229 234 236 236 236 235 235 239 242 244 246 246 248 250 253 255 257 258 259 260 260 262 266 270 275 280 282 283 285 285 278 268 263 260 258 257 258 256 253 251 250 250 248 245 246 251 255 256 257 254 250 251 255 258 262 268 273 278 286 296 307 319 323 323 325 324 324 330 330 325 332 347 354 355 359 4 5 4 3 1 360 360 359 358 358
229 233 235 237 239 238 236 238 241 243 245 246 248 251 254 256 257 257 257 260 264 268 271 273 276 278 280 283 286 285 279 270 264 262 263 265 267 267 260 253 251 252 250 246 247 252 255 257 256 254 250 250 254 257 260 265 269 273 282 293 305 316 320 322 322 320 322 325 321 323 336 347 350 353 358 3 3 3 4 5 5 3 1 359 359
229 232 236 240 241 238 237 239 241 243 245 247 249 252 255 256 258 260 263 269 273 275 275 276 276 275 279 284 284 281 277 274 269 266 265 265 268 269 264 257 257 258 256 249 248 252 255 255 253 252 252 252 254 257 260 264 266 269 277 289 302 312 315 317 316 315 318 318 315 324 338 344 347 352 356 359 360 0 5 8 8 6 5 3 1
230 232 234 237 238 237 237 238 239 241 245 249 252 255 257 260 263 267 269 270 271 274 280 281 275 273 276 280 278 275 273 271 269 267 264 264 266 267 264 260 261 263 259 251 250 254 257 258 256 254 254 254 254 257 260 262 263 266 273 284 296 304 307 308 308 310 312 311 313 327 338 341 346 351 354 355 356 359 5 7 8 8 9 8 5
230 232 233 235 236 236 236 237 239 244 250 254 257 261 264 265 265 263 261 263 269 275 279 277 272 272 276 276 273 273 270 264 264 265 263 263 265 266 264 263 262 261 258 254 254 256 258 260 260 257 255 254 254 256 259 259 259 262 269 280 287 291 295 298 302 305 306 306 314 328 334 338 345 349 351 353 354 359 5 4 3 6 9 11 11
228 232 235 237 239 240 241 243 246 251 257 262 265 268 267 262 260 260 260 265 271 273 273 272 270 271 273 272 272 273 268 263 265 266 264 264 265 264 263 261 256 253 254 255 255 256 257 258 257 254 253 254 256 257 258 258 257 259 265 274 279 281 286 293 298 302 301 304 316 326 329 337 344 345 349 352 353 359 3 0 360 3 6 9 13
228 234 239 243 246 247 249 252 254 258 264 269 271 271 265 257 256 259 262 266 268 270 272 274 270 263 260 263 267 269 268 269 272 273 270 267 264 262 260 257 250 247 250 253 254 254 256 258 257 252 250 253 256 256 257 257 256 255 259 267 272 275 282 290 295 296 296 301 313 321 326 337 341 342 348 351 352 357 359 356 357 0 3 6 12
231 236 242 247 251 253 255 259 263 266 270 273 274 274 271 264 261 261 264 269 269 270 272 274 271 266 263 263 264 266 270 273 273 269 266 264 262 261 259 252 245 244 247 251 253 253 255 259 258 253 251 253 254 254 256 257 254 253 257 263 267 271 280 289 293 292 290 297 310 318 327 336 338 340 347 350 351 355 354 352 355 358 1 4 8
230 235 240 245 249 255 260 264 266 270 274 278 279 281 282 280 275 270 267 269 271 272 272 272 274 275 272 267 266 269 272 274 272 264 259 259 259 258 256 249 242 243 248 250 252 252 254 256 256 253 252 253 253 252 254 254 252 252 256 260 264 270 279 286 287 285 287 296 309 319 329 335 335 338 345 347 349 352 350 350 354 357 359 2 6
237 241 244 248 253 258 262 264 266 271 277 280 281 283 283 281 280 275 265 260 264 269 273 274 275 277 275 273 275 277 277 279 280 271 260 257 256 256 257 254 249 248 249 249 249 250 251 253 253 251 252 253 252 251 253 252 251 253 257 261 265 271 279 284 285 288 294 303 312 321 328 329 329 334 342 345 347 349 348 349 354 355 356 1 5
245 248 250 253 256 259 261 265 268 272 276 277 279 282 280 277 277 276 269 262 263 268 273 275 277 279 281 283 285 286 285 288 290 278 262 254 252 253 255 254 250 247 247 247 249 251 252 250 249 249 251 252 251 252 253 252 251 253 257 261 264 267 272 279 285 291 299 305 311 316 319 321 324 330 337 341 345 348 347 348 352 353 354 359 3
247 250 252 254 257 259 263 267 270 271 273 276 279 280 278 275 274 272 268 265 266 269 273 277 280 283 285 286 285 286 287 290 291 279 263 256 255 256 255 253 249 247 247 249 252 255 255 252 249 248 249 250 250 252 253 253 253 254 256 260 265 269 276 283 289 294 299 303 308 312 314 318 322 326 331 338 345 347 344 345 349 351 352 357 360
249 251 253 255 258 261 264 267 269 270 274 279 282 282 279 274 271 272 271 269 270 272 274 275 279 282 285 284 284 285 286 286 284 277 269 266 265 266 262 257 252 250 249 251 255 258 258 256 252 249 248 249 250 251 252 253 253 252 255 260 264 269 277 283 287 292 296 300 305 311 313 316 319 324 331 339 343 342 340 344 347 347 350 356 357
249 252 255 257 260 262 263 265 268 273 279 284 285 283 279 272 268 271 273 273 274 274 273 274 278 282 283 283 283 285 285 283 279 275 274 273 272 271 269 263 259 256 255 257 260 261 260 259 256 252 250 249 249 249 251 253 253 252 256 259 259 262 269 275 279 284 288 293 299 305 310 314 319 326 332 337 337 336 337 342 344 343 348 354 354
249 251 254 257 259 260 262 266 272 280 286 287 286 285 282 276 271 266 266 271 273 271 270 274 278 279 275 271 273 276 277 278 276 271 269 271 271 271 271 268 265 264 263 263 263 262 262 262 260 257 252 249 248 250 253 255 254 255 258 259 257 258 266 272 277 282 287 293 299 305 311 318 322 324 328 329 327 327 333 339 342 344 348 349 348
250 252 254 257 260 263 266 272 279 285 287 285 283 282 280 277 274 268 265 270 272 270 270 275 279 278 270 261 262 273 276 274 274 273 272 274 274 273 273 272 270 269 268 267 266 265 265 264 262 258 252 248 248 253 257 256 255 256 258 258 255 255 260 267 275 283 288 293 299 304 310 315 316 317 320 320 318 324 335 342 342 341 341 341 342
250 253 257 261 264 267 272 279 282 283 282 280 281 282 279 276 277 273 267 266 267 267 269 273 278 281 276 265 264 275 277 271 271 274 277 279 278 276 274 273 272 271 269 269 268 267 266 265 261 256 252 248 249 255 259 257 255 255 257 258 256 253 256 265 275 283 288 292 297 302 305 307 309 312 313 312 316 327 337 338 334 331 333 336 339
257 260 261 263 268 273 278 281 279 276 275 276 281 286 285 282 282 278 269 266 267 270 273 274 273 275 275 269 267 271 271 264 261 265 272 277 278 276 275 275 274 273 272 271 270 268 266 263 260 256 251 248 250 256 259 258 256 255 256 257 256 252 253 264 276 284 289 292 297 300 301 303 306 308 307 307 316 327 331 327 326 328 331 332 333
260 262 264 268 274 277 278 277 273 270 272 277 282 287 288 286 285 278 270 268 269 271 275 278 276 274 274 273 272 270 267 262 261 265 272 274 273 273 276 277 278 278 277 275 273 270 266 263 260 256 252 249 253 259 260 256 254 254 255 256 255 252 253 260 271 279 283 288 293 296 297 298 301 302 302 306 316 323 321 318 322 326 326 326 329
258 264 270 274 275 275 273 272 271 273 279 286 291 294 293 290 287 280 272 267 265 263 267 272 276 275 275 277 279 275 268 263 266 272 273 270 269 271 274 273 273 275 277 277 275 272 268 266 262 257 252 252 258 262 259 254 253 254 255 256 257 255 254 257 264 270 276 283 290 293 294 295 296 297 301 307 313 314 312 313 318 320 319 322 328
264 269 270 269 267 267 267 269 273 280 287 293 297 298 294 286 279 274 271 269 267 264 264 267 269 270 271 276 281 280 272 268 272 276 274 270 271 274 274 270 269 271 273 273 272 269 267 265 261 255 253 257 263 263 258 253 253 254 255 258 260 258 255 256 259 264 273 283 290 293 294 296 297 299 303 307 307 306 306 309 312 314 316 322 326
265 264 264 264 265 267 269 272 277 283 289 291 292 291 289 284 279 276 274 273 271 269 267 268 268 267 267 268 272 275 275 275 277 277 274 273 274 276 275 273 272 271 269 266 263 261 261 260 257 255 258 264 266 262 257 254 254 255 257 260 262 261 257 254 254 260 271 282 288 291 293 295 297 300 303 304 303 301 301 304 309 313 317 320 320
259 262 264 267 270 273 275 279 281 283 285 286 286 286 285 285 284 282 280 280 279 276 273 271 269 269 269 269 268 269 273 276 278 279 278 279 279 278 278 279 278 275 270 264 258 254 254 255 254 256 261 264 263 260 257 257 258 259 259 261 264 265 259 253 252 258 269 279 284 286 288 290 295 300 303 302 299 298 298 302 309 314 316 319 320
258 264 267 269 272 275 278 279 280 281 281 280 280 282 282 282 282 283 286 289 291 289 285 278 271 269 272 273 272 271 273 277 282 285 286 287 286 283 281 281 280 277 274 270 263 254 250 250 253 256 260 262 261 260 261 262 265 266 264 264 268 268 262 255 253 258 267 276 281 282 283 286 291 297 301 300 298 298 300 304 308 313 317 321 323
263 268 273 275 275 275 276 276 275 277 278 279 282 286 286 282 281 284 289 292 293 291 287 279 270 267 268 269 270 271 274 278 282 284 285 287 287 286 282 281 279 277 275 274 270 263 258 256 256 259 262 263 263 264 267 269 269 268 267 269 271 269 262 256 256 261 268 273 276 278 280 282 288 294 297 297 297 297 298 301 305 311 316 317 317
271 275 279 279 278 277 278 279 280 282 285 289 293 296 295 290 287 288 291 294 293 290 285 279 275 274 275 276 277 277 277 278 281 283 285 286 288 287 282 276 275 276 275 274 274 272 269 266 264 264 266 267 269 270 272 271 269 267 268 270 269 264 259 255 256 262 268 272 273 274 276 279 284 289 292 292 292 291 292 296 302 307 309 310 311
279 283 284 283 283 284 285 286 288 289 289 289 289 291 292 291 291 296 299 298 297 295 290 284 283 285 287 289 290 288 284 281 280 280 280 281 282 281 276 271 272 277 280 281 280 278 274 271 269 269 269 271 272 273 271 268 266 266 268 269 266 261 256 253 255 261 267 270 271 273 275 278 282 285 287 287 287 288 291 296 301 304 306 309 310
280 281 279 278 280 284 287 288 289 290 289 285 281 281 284 286 290 297 300 297 295 296 294 287 285 289 293 297 298 297 294 289 284 281 280 279 277 274 270 267 270 278 284 286 285 281 276 272 271 270 271 273 274 272 268 266 266 267 267 267 265 260 255 254 258 263 266 268 270 272 274 276 278 280 280 282 285 287 291 295 299 302 304 307 309
279 281 281 283 286 287 286 284 284 288 289 285 278 276 278 281 285 291 292 287 283 287 290 288 286 286 289 292 296 299 299 297 293 289 286 282 280 279 275 270 270 276 282 285 286 283 277 272 270 270 272 272 271 268 265 266 268 268 267 264 261 257 255 257 261 265 268 271 272 274 275 277 279 280 281 281 283 285 288 292 295 299 301 304 308
270 275 281 287 291 292 290 288 287 287 286 282 278 278 281 284 286 287 286 281 275 275 284 291 292 288 284 287 294 301 304 302 298 294 291 289 289 288 285 280 279 282 286 289 289 285 279 273 271 271 271 270 269 269 271 272 270 268 265 262 260 259 260 262 264 266 270 272 273 274 276 278 280 281 282 281 282 284 287 290 294 297 300 303 307
265 269 273 280 287 292 294 295 295 291 284 279 278 280 281 282 283 284 285 285 281 277 280 286 288 286 283 288 296 302 306 306 301 296 294 293 290 287 283 282 284 288 292 293 292 288 282 277 274 274 273 272 274 276 278 277 274 270 268 266 265 265 266 267 269 271 273 273 272 272 273 273 274 275 277 279 281 284 287 290 293 296 299 302 306
267 270 274 278 284 289 293 296 299 299 292 283 281 280 278 278 280 284 289 291 290 286 283 282 281 279 281 290 298 301 303 304 303 299 294 289 284 281 282 284 286 290 293 294 294 294 291 286 282 280 280 280 281 282 281 281 279 277 275 273 273 273 274 276 277 277 275 273 271 271 271 271 271 272 274 277 280 284 287 290 293 296 299 303 305
Height
3109 3110 3111 3112 3114 3115 3117 3117 3118 3119 3120 3121 3122 3123 3124 3126 3128 3130 3132 3134 3135 3137 3138 3139 3140 3141 3141 3141 3142 3142 3142 3142 3143 3143 3143 3143 3143 3144 3144 3144 3144 3143 3143 3143 3142 3142 3141 3141 3141 3140 3140 3139 3139 3138 3137 3136 3135 3133 3132 3131 3130 3129 3128 3127 3126 3124 3123 3121 3119 3117 3115 3114 3111 3109 3107 3104 3101 3098 3094 3091 3088 3084 3081 3077 3073
3106 3107 3108 3110 3112 3114 3115 3116 3117 3118 3119 3120 3120 3121 3123 3125 3127 3129 3131 3133 3134 3135 3136 3137 3138 3138 3139 3139 3140 3140 3140 3140 3141 3141 3141 3141 3142 3142 3142 3142 3142 3142 3142 3141 3141 3140 3140 3140 3139 3139 3138 3138 3137 3136 3135 3134 3133 3132 3131 3130 3129 3128 3127 3126 3125 3123 3122 3120 3118 3116 3114 3112 3110 3107 3104 3101 3098 3095 3092 3088 3085 3081 3079 3076 3071
3104 3105 3106 3108 3110 3112 3112 3114 3115 3116 3117 3118 3119 3120 3122 3124 3126 3128 3129 3131 3132 3133 3134 3135 3136 3136 3137 3137 3138 3138 3138 3138 3139 3139 3139 3140 3140 3140 3141 3141 3140 3140 3140 3140 3139 3139 3138 3138 3138 3138 3137 3136 3136 3135 3134 3133 3132 3131 3130 3129 3128 3127 3126 3125 3123 3122 3121 3119 3117 3115 3113 3111 3108 3105 3102 3099 3096 3093 3089 3086 3083 3079 3076 3073 3069
3101 3102 3104 3106 3108 3109 3110 3112 3113 3114 3115 3116 3117 3119 3121 3123 3125 3126 3127 3129 3129 3131 3132 3133 3134 3134 3135 3135 3135 3136 3136 3137 3137 3137 3137 3138 3138 3139 3139 3139 3139 3139 3138 3138 3138 3137 3137 3137 3137 3136 3136 3135 3134 3133 3133 3132 3131 3130 3129 3127 3126 3125 3125 3123 3122 3121 3119 3118 3116 3114 3111 3109 3106 3103 3100 3096 3094 3091 3088 3084 3081 3078 3074 3071 3067
3098 3100 3102 3103 3105 3107 3108 3110 3111 3112 3113 3114 3115 3117 3119 3121 3123 3124 3125 3126 3127 3129 3130 3131 3132 3133 3133 3133 3134 3134 3134 3135 3135 3135 3135 3136 3136 3137 3137 3137 3137 3137 3137 3136 3136 3135 3135 3135 3135 3135 3134 3133 3132 3132 3131 3130 3129 3128 3127 3126 3125 3124 3123 3122 3120 3119 3117 3116 3114 3112 3109 3107 3104 3100 3097 3094 3091 3089 3086 3083 3079 3076 3072 3069 3065
3096 3098 3100 3101 3103 3105 3106 3108 3109 3110 3111 3112 3114 3115 3117 3119 3121 3122 3123 3124 3126 3128 3129 3130 3130 3131 3131 3132 3132 3132 3133 3133 3133 3133 3134 3134 3134 3134 3135 3135 3135 3135 3135 3134 3134 3134 3133 3133 3133 3133 3132 3131 3131 3130 3129 3129 3128 3127 3126 3125 3124 3122 3121 3120 3118 3117 3115 3113 3111 3109 3107 3104 3102 3099 3095 3092 3089 3085 3083 3080 3078 3075 3070 3066 3063
3094 3096 3098 3099 3101 3103 3104 3106 3107 3108 3109 3111 3112 3114 3115 3117 3118 3120 3121 3123 3125 3127 3128 3128 3129 3129 3130 3130 3130 3130 3131 3131 3131 3131 3131 3132 3132 3132 3133 3133 3133 3133 3133 3132 3132 3132 3131 3131 3131 3131 3130 3130 3129 3128 3128 3127 3126 3125 3124 3123 3122 3120 3119 3118 3116 3115 3113 3111 3109 3107 3105 3102 3100 3097 3094 3091 3088 3084 3080 3077 3074 3071 3068 3064 3060
3091 3093 3096 3097 3098 3101 3102 3104 3105 3106 3108 3110 3111 3112 3113 3115 3116 3119 3121 3122 3124 3125 3126 3126 3127 3127 3128 3128 3128 3128 3128 3128 3128 3129 3129 3129 3130 3130 3130 3131 3131 3131 3131 3130 3130 3130 3129 3129 3129 3129 3129 3128 3127 3127 3126 3125 3124 3123 3122 3121 3120 3119 3117 3116 3115 3113 3111 3110 3107 3105 3103 3101 3098 3096 3093 3090 3087 3083 3079 3074 3070 3067 3065 3062 3058
3089 3091 3093 3095 3096 3098 3100 3101 3103 3104 3106 3108 3109 3110 3112 3113 3116 3118 3119 3121 3122 3122 3122 3123 3124 3124 3125 3125 3125 3125 3125 3125 3126 3126 3126 3127 3127 3128 3128 3129 3129 3129 3129 3128 3128 3128 3128 3128 3127 3127 3127 3126 3125 3125 3125 3124 3123 3121 3120 3119 3118 3117 3116 3114 3113 3111 3110 3108 3106 3104 3102 3099 3097 3094 3091 3088 3084 3080 3077 3073 3069 3065 3062 3060 3057
3087 3089 3091 3092 3094 3096 3098 3099 3101 3103 3104 3106 3107 3109 3111 3112 3114 3116 3117 3118 3119 3119 3120 3121 3121 3121 3122 3122 3122 3122 3122 3123 3123 3124 3124 3124 3125 3125 3126 3126 3126 3126 3126 3126 3126 3126 3126 3126 3125 3125 3125 3124 3124 3124 3123 3123 3121 3120 3119 3118 3117 3115 3114 3113 3111 3110 3108 3106 3105 3102 3100 3098 3095 3092 3089 3086 3082 3079 3075 3072 3068 3063 3059 3056 3053
3084 3086 3088 3090 3092 3093 3095 3097 3099 3101 3103 3104 3105 3107 3109 3111 3112 3114 3115 3116 3117 3117 3118 3118 3119 3119 3119 3120 3120 3120 3120 3120 3121 3121 3121 3122 3122 3123 3123 3124 3124 3124 3124 3124 3124 3124 3124 3123 3123 3123 3123 3122 3122 3122 3122 3121 3120 3118 3117 3116 3115 3114 3113 3111 3110 3108 3106 3105 3103 3101 3099 3096 3094 3090 3087 3085 3081 3078 3074 3070 3066 3062 3057 3053 3049
3082 3084 3086 3088 3089 3091 3093 3095 3097 3099 3101 3102 3104 3106 3108 3109 3111 3112 3113 3114 3114 3115 3115 3116 3116 3116 3117 3118 3118 3118 3118 3118 3119 3119 3119 3119 3120 3120 3121 3121 3121 3122 3122 3122 3122 3122 3122 3121 3121 3121 3121 3120 3120 3120 3120 3119 3118 3117 3116 3115 3114 3112 3111 3110 3109 3107 3105 3104 3102 3100 3098 3095 3092 3089 3086 3083 3080 3076 3073 3069 3064 3060 3056 3051 3047
3080 3081 3083 3085 3087 3089 3091 3093 3095 3097 3099 3101 3103 3105 3106 3107 3109 3110 3111 3111 3112 3112 3113 3114 3114 3114 3114 3115 3115 3116 3116 3116 3116 3117 3117 3117 3117 3118 3118 3118 3118 3119 3119 3120 3120 3120 3120 3119 3119 3119 3118 3118 3118 3118 3118 3118 3117 3116 3115 3113 3112 3111 3110 3109 3107 3106 3104 3103 3101 3098 3096 3093 3090 3087 3084 3081 3078 3074 3071 3066 3063 3059 3055 3051 3047
3077 3079 3081 3083 3085 3087 3089 3091 3094 3096 3097 3100 3102 3103 3104 3105 3106 3107 3108 3108 3109 3110 3111 3111 3111 3111 3111 3111 3112 3113 3114 3114 3114 3114 3114 3114 3115 3115 3115 3115 3116 3116 3116 3117 3117 3118 3118 3117 3117 3117 3116 3116 3116 3116 3116 3116 3115 3114 3113 3112 3111 3109 3108 3107 3106 3105 3103 3101 3099 3097 3095 3092 3089 3086 3083 3080 3076 3072 3068 3064 3061 3057 3054 3052 3049
3075 3077 3079 3081 3083 3085 3088 3090 3092 3094 3096 3098 3099 3101 3101 3103 3104 3104 3105 3106 3107 3108 3108 3108 3108 3107 3107 3108 3110 3111 3111 3111 3110 3111 3111 3111 3112 3112 3112 3112 3113 3113 3113 3114 3114 3115 3115 3115 3115 3115 3114 3114 3114 3114 3114 3114 3113 3113 3112 3111 3110 3108 3107 3106 3105 3104 3102 3100 3099 3096 3093 3091 3088 3085 3082 3078 3074 3071 3068 3064 3060 3057 3054 3053 3050
3073 3075 3076 3079 3081 3084 3086 3089 3091 3092 3094 3096 3097 3098 3099 3100 3101 3102 3103 3104 3105 3105 3105 3105 3104 3104 3104 3106 3107 3108 3107 3105 3105 3106 3107 3108 3108 3108 3108 3109 3109 3109 3109 3110 3110 3111 3112 3112 3112 3112 3112 3112 3112 3112 3112 3112 3111 3111 3110 3109 3108 3107 3106 3105 3103 3102 3100 3099 3097 3094 3092 3090 3088 3084 3080 3077 3073 3070 3067 3064 3061 3057 3054 3051 3048
3070 3072 3074 3077 3080 3083 3085 3087 3089 3090 3092 3094 3095 3096 3097 3098 3098 3099 3100 3101 3102 3102 3102 3101 3101 3101 3102 3102 3103 3103 3101 3098 3099 3102 3103 3103 3104 3104 3105 3106 3106 3105 3105 3105 3107 3108 3108 3109 3109 3110 3110 3110 3110 3110 3110 3109 3109 3108 3107 3106 3105 3104 3103 3102 3101 3100 3098 3097 3095 3093 3092 3090 3087 3084 3080 3076 3072 3069 3066 3063 3060 3057 3054 3049 3046
3068 3070 3072 3075 3079 3082 3083 3085 3087 3088 3090 3092 3092 3093 3095 3095 3096 3097 3097 3098 3099 3099 3099 3098 3098 3099 3099 3098 3098 3098 3097 3097 3098 3099 3098 3097 3098 3099 3100 3101 3102 3102 3101 3102 3103 3104 3105 3106 3106 3107 3108 3107 3107 3107 3107 3107 3106 3105 3105 3104 3103 3102 3101 3100 3099 3098 3097 3096 3094 3093 3092 3090 3086 3083 3080 3076 3072 3069 3066 3063 3060 3057 3053 3048 3044
3067 3068 3071 3074 3077 3079 3081 3083 3085 3086 3088 3089 3090 3091 3092 3092 3093 3094 3094 3095 3095 3095 3096 3096 3096 3096 3095 3094 3094 3094 3095 3097 3098 3097 3096 3095 3094 3095 3096 3097 3098 3098 3097 3098 3099 3101 3102 3103 3103 3104 3105 3105 3105 3105 3104 3104 3104 3103 3102 3101 3100 3099 3099 3098 3098 3097 3096 3094 3093 3092 3091 3088 3085 3082 3079 3076 3073 3070 3067 3064 3060 3056 3052 3048 3044
3066 3067 3069 3072 3074 3076 3079 3080 3082 3084 3085 3086 3087 3088 3089 3089 3091 3091 3091 3091 3092 3092 3093 3094 3094 3093 3092 3092 3091 3091 3093 3094 3094 3094 3094 3094 3094 3094 3093 3094 3094 3094 3093 3094 3096 3097 3099 3100 3101 3101 3102 3102 3102 3102 3102 3102 3101 3101 3100 3099 3098 3098 3097 3097 3096 3095 3094 3093 3092 3090 3088 3086 3084 3082 3079 3077 3074 3071 3068 3065 3060 3056 3051 3048 3044
3065 3066 3068 3070 3072 3075 3076 3078 3079 3081 3083 3083 3084 3085 3086 3087 3088 3088 3088 3088 3089 3090 3091 3091 3091 3091 3090 3089 3088 3088 3090 3090 3090 3090 3092 3093 3093 3093 3091 3091 3091 3090 3090 3092 3093 3095 3096 3098 3098 3099 3099 3099 3100 3100 3100 3099 3099 3099 3098 3097 3097 3096 3096 3095 3095 3094 3093 3091 3090 3089 3087 3085 3083 3081 3079 3076 3074 3071 3068 3065 3060 3056 3052 3048 3044
3063 3065 3067 3068 3071 3073 3074 3075 3077 3079 3079 3080 3081 3082 3083 3084 3085 3085 3085 3085 3086 3087 3088 3088 3088 3088 3087 3086 3085 3085 3086 3087 3087 3088 3089 3090 3091 3090 3089 3089 3088 3088 3089 3091 3091 3092 3093 3095 3096 3096 3096 3097 3098 3097 3098 3097 3097 3097 3096 3096 3095 3095 3094 3094 3094 3093 3091 3090 3089 3087 3085 3083 3082 3079 3077 3075 3073 3070 3067 3064 3061 3058 3054 3049 3045
3062 3064 3065 3067 3068 3070 3072 3073 3075 3075 3076 3077 3078 3079 3080 3081 3082 3082 3082 3083 3083 3084 3084 3084 3084 3083 3083 3083 3082 3082 3083 3084 3085 3085 3086 3087 3087 3087 3087 3086 3086 3087 3088 3088 3088 3089 3090 3092 3094 3094 3094 3095 3096 3095 3095 3095 3095 3095 3094 3094 3093 3093 3093 3093 3092 3091 3090 3089 3087 3085 3083 3082 3080 3078 3076 3074 3071 3069 3066 3063 3061 3058 3055 3051 3047
3060 3062 3064 3065 3067 3068 3069 3071 3072 3073 3074 3075 3076 3077 3078 3078 3079 3079 3079 3080 3081 3081 3081 3080 3079 3079 3079 3079 3079 3079 3080 3082 3082 3082 3082 3083 3083 3083 3083 3083 3083 3084 3085 3085 3086 3087 3088 3090 3092 3093 3092 3092 3093 3093 3093 3093 3093 3093 3092 3092 3092 3091 3091 3091 3090 3089 3088 3087 3085 3083 3081 3080 3078 3076 3074 3072 3070 3067 3064 3062 3060 3058 3055 3052 3048
3059 3061 3062 3063 3065 3066 3067 3069 3070 3071 3072 3073 3074 3074 3075 3075 3076 3077 3077 3077 3077 3077 3077 3076 3076 3076 3076 3076 3075 3076 3077 3078 3079 3079 3078 3079 3079 3080 3080 3080 3080 3081 3082 3083 3084 3084 3085 3087 3089 3090 3090 3090 3090 3091 3091 3090 3090 3090 3090 3090 3089 3089 3089 3089 3088 3087 3086 3085 3083 3081 3080 3078 3076 3074 3072 3070 3068 3065 3063 3061 3059 3056 3054 3051 3047
3058 3059 3060 3062 3063 3064 3066 3067 3068 3069 3070 3070 3071 3071 3072 3073 3074 3074 3074 3074 3074 3074 3073 3073 3073 3073 3072 3072 3073 3073 3073 3074 3076 3076 3075 3075 3076 3077 3077 3077 3077 3078 3079 3080 3081 3082 3083 3084 3086 3087 3087 3087 3088 3088 3088 3088 3088 3088 3087 3087 3087 3087 3087 3086 3086 3085 3084 3083 3081 3079 3078 3076 3074 3072 3070 3068 3066 3063 3062 3060 3058 3055 3052 3049 3045
3056 3057 3059 3060 3061 3062 3063 3065 3066 3067 3067 3068 3069 3069 3069 3070 3070 3070 3071 3071 3070 3071 3070 3070 3069 3069 3069 3069 3070 3070 3070 3071 3073 3073 3072 3071 3073 3074 3074 3074 3074 3075 3076 3077 3079 3080 3080 3082 3083 3083 3083 3084 3084 3085 3085 3086 3085 3085 3085 3085 3085 3085 3084 3084 3083 3083 3082 3081 3079 3077 3076 3074 3072 3071 3068 3066 3064 3062 3060 3058 3056 3053 3050 3047 3044
3055 3056 3057 3059 3059 3061 3062 3063 3064 3065 3065 3066 3067 3067 3067 3067 3067 3067 3068 3068 3067 3067 3067 3067 3067 3066 3067 3067 3067 3067 3067 3068 3069 3069 3069 3069 3070 3070 3070 3071 3071 3072 3074 3075 3076 3077 3077 3078 3079 3080 3080 3081 3081 3082 3082 3083 3082 3082 3082 3082 3082 3082 3082 3081 3081 3081 3080 3078 3077 3075 3073 3072 3071 3069 3066 3065 3063 3061 3059 3057 3055 3052 3049 3046 3042
3053 3054 3055 3057 3058 3059 3060 3061 3062 3063 3063 3064 3064 3064 3064 3064 3064 3064 3064 3064 3064 3065 3065 3064 3064 3064 3064 3064 3064 3065 3065 3065 3065 3066 3066 3066 3066 3066 3067 3068 3070 3071 3072 3073 3073 3072 3073 3074 3075 3076 3077 3078 3078 3079 3079 3080 3080 3080 3080 3080 3080 3080 3079 3079 3079 3078 3077 3076 3074 3073 3071 3070 3069 3067 3065 3063 3061 3060 3058 3056 3053 3051 3049 3045 3042
3051 3052 3053 3054 3055 3057 3058 3058 3059 3060 3061 3061 3061 3062 3062 3061 3061 3061 3061 3062 3062 3062 3062 3062 3061 3062 3061 3061 3062 3062 3062 3062 3063 3063 3062 3062 3062 3063 3064 3066 3067 3068 3069 3069 3068 3068 3069 3070 3072 3073 3074 3075 3076 3076 3077 3077 3077 3077 3077 3077 3077 3077 3077 3077 3076 3076 3075 3074 3072 3071 3070 3069 3067 3065 3063 3062 3060 3058 3056 3054 3052 3050 3047 3044 3042
3049 3050 3051 3052 3053 3054 3055 3056 3057 3058 3058 3058 3058 3059 3059 3058 3058 3058 3059 3059 3059 3060 3060 3059 3059 3059 3059 3059 3059 3059 3059 3059 3060 3060 3059 3058 3058 3059 3061 3062 3063 3064 3065 3065 3064 3065 3066 3067 3068 3070 3071 3072 3072 3073 3074 3074 3074 3074 3074 3074 3074 3074 3074 3074 3074 3073 3073 3072 3071 3069 3068 3067 3065 3063 3061 3059 3058 3056 3054 3053 3051 3049 3046 3044 3041
3046 3048 3049 3050 3051 3052 3053 3053 3054 3055 3055 3055 3055 3055 3055 3055 3055 3055 3056 3056 3057 3057 3058 3057 3057 3057 3057 3057 3057 3056 3056 3057 3057 3057 3056 3056 3056 3056 3057 3058 3059 3060 3061 3060 3060 3061 3062 3064 3065 3067 3068 3068 3069 3070 3070 3071 3071 3071 3071 3071 3071 3071 3071 3071 3071 3071 3071 3070 3069 3067 3066 3065 3063 3061 3059 3057 3055 3054 3053 3051 3049 3047 3045 3043 3040
3044 3045 3046 3047 3048 3049 3050 3051 3051 3052 3052 3052 3051 3051 3051 3051 3052 3052 3053 3053 3054 3055 3055 3055 3055 3055 3054 3054 3055 3054 3054 3054 3054 3054 3054 3053 3053 3054 3054 3055 3055 3056 3057 3057 3057 3058 3059 3060 3062 3063 3064 3065 3066 3067 3067 3067 3067 3068 3068 3068 3068 3068 3069 3069 3069 3069 3068 3068 3067 3065 3064 3062 3060 3058 3057 3055 3054 3053 3051 3049 3048 3046 3044 3042 3040
3042 3043 3044 3044 3045 3046 3047 3048 3048 3048 3048 3048 3048 3047 3047 3048 3048 3049 3049 3050 3051 3051 3051 3051 3052 3052 3051 3051 3052 3052 3052 3052 3052 3051 3051 3051 3051 3051 3051 3052 3052 3053 3053 3054 3054 3055 3056 3057 3059 3060 3061 3062 3062 3063 3063 3064 3064 3065 3065 3065 3065 3065 3066 3066 3066 3066 3065 3065 3064 3063 3061 3059 3058 3056 3055 3053 3053 3051 3049 3047 3046 3044 3042 3040 3038
3039 3040 3041 3042 3042 3044 3044 3045 3045 3045 3045 3045 3044 3044 3044 3045 3045 3045 3046 3047 3048 3048 3048 3049 3048 3048 3047 3048 3048 3049 3049 3049 3049 3048 3048 3048 3048 3048 3048 3049 3049 3049 3050 3050 3051 3052 3053 3054 3056 3057 3057 3058 3058 3059 3059 3060 3061 3061 3061 3061 3061 3061 3062 3063 3063 3063 3063 3062 3061 3060 3059 3057 3056 3054 3053 3052 3051 3049 3047 3045 3044 3042 3041 3039 3037
3037 3038 3039 3039 3040 3041 3041 3042 3042 3041 3042 3042 3041 3041 3041 3042 3042 3042 3043 3044 3044 3045 3046 3046 3045 3044 3044 3044 3045 3045 3045 3045 3045 3046 3046 3046 3045 3045 3045 3046 3046 3046 3046 3047 3048 3049 3050 3051 3052 3053 3053 3054 3054 3055 3055 3056 3057 3057 3058 3058 3058 3058 3058 3059 3059 3060 3059 3059 3058 3057 3056 3055 3054 3052 3051 3050 3049 3046 3044 3043 3042 3041 3039 3038 3036
3034 3035 3036 3037 3037 3038 3038 3038 3038 3039 3039 3039 3039 3039 3039 3039 3039 3039 3040 3041 3041 3042 3042 3042 3041 3041 3041 3042 3042 3042 3042 3042 3042 3042 3042 3043 3042 3042 3042 3042 3043 3043 3043 3043 3044 3045 3046 3047 3048 3049 3049 3050 3050 3051 3052 3052 3053 3053 3054 3054 3054 3054 3055 3055 3056 3056 3056 3056 3055 3055 3054 3053 3051 3050 3049 3048 3046 3044 3042 3041 3040 3039 3037 3036 3034
3032 3033 3033 3034 3035 3035 3035 3035 3035 3036 3036 3036 3036 3036 3036 3036 3036 3037 3037 3038 3038 3038 3038 3038 3038 3038 3038 3039 3039 3039 3039 3039 3039 3039 3039 3039 3039 3039 3039 3039 3039 3039 3039 3040 3040 3041 3042 3043 3044 3045 3046 3046 3047 3048 3048 3048 3048 3049 3049 3049 3050 3050 3051 3052 3052 3053 3053 3053 3052 3052 3051 3050 3048 3047 3046 3045 3043 3041 3040 3039 3038 3036 3035 3034 3032
3030 3030 3030 3031 3031 3032 3032 3032 3032 3032 3033 3033 3033 3033 3033 3033 3033 3034 3034 3034 3035 3035 3035 3034 3035 3035 3035 3035 3036 3036 3036 3036 3036 3036 3036 3036 3036 3035 3035 3035 3036 3036 3036 3036 3037 3037 3038 3039 3040 3041 3042 3042 3043 3043 3043 3044 3044 3044 3045 3045 3046 3047 3047 3048 3048 3049 3049 3049 3049 3049 3048 3047 3046 3044 3043 3042 3040 3039 3038 3037 3036 3034 3033 3031 3029
3027 3027 3027 3028 3029 3029 3030 3030 3029 3029 3030 3030 3030 3030 3031 3031 3031 3031 3031 3031 3031 3032 3031 3030 3031 3032 3032 3033 3033 3032 3032 3032 3033 3033 3033 3033 3033 3032 3031 3031 3032 3032 3032 3032 3033 3033 3034 3035 3036 3037 3038 3038 3038 3038 3039 3039 3040 3040 3041 3042 3043 3043 3044 3044 3045 3045 3045 3045 3045 3045 3044 3043 3042 3041 3040 3039 3038 3037 3036 3035 3033 3032 3030 3029 3027
3024 3025 3025 3025 3026 3026 3027 3027 3027 3027 3027 3027 3027 3028 3028 3028 3028 3028 3028 3028 3028 3028 3028 3027 3027 3028 3029 3030 3031 3029 3028 3028 3028 3029 3029 3029 3029 3028 3028 3028 3028 3028 3028 3028 3029 3029 3030 3032 3033 3033 3033 3033 3033 3034 3034 3034 3036 3037 3038 3039 3039 3040 3040 3041 3041 3041 3041 3042 3042 3041 3041 3040 3039 3038 3037 3036 3035 3035 3034 3032 3031 3030 3028 3027 3026
3022 3022 3022 3022 3023 3023 3023 3023 3024 3024 3024 3024 3024 3025 3025 3025 3025 3025 3025 3025 3025 3025 3024 3024 3023 3023 3024 3026 3028 3027 3024 3023 3024 3024 3025 3025 3026 3025 3024 3024 3024 3024 3024 3024 3024 3025 3026 3027 3028 3029 3029 3029 3029 3029 3029 3030 3032 3033 3034 3035 3035 3036 3036 3037 3037 3037 3038 3038 3038 3037 3037 3037 3036 3035 3034 3034 3033 3032 3031 3029 3028 3027 3026 3025 3023
3020 3019 3019 3020 3020 3020 3021 3021 3021 3021 3022 3022 3022 3022 3022 3023 3023 3022 3022 3022 3022 3021 3021 3021 3021 3020 3020 3021 3023 3023 3022 3021 3020 3020 3021 3022 3022 3022 3021 3020 3020 3020 3020 3020 3020 3021 3022 3023 3023 3024 3024 3025 3025 3025 3025 3027 3029 3030 3030 3031 3031 3032 3032 3033 3033 3034 3034 3034 3034 3034 3034 3033 3033 3032 3031 3030 3029 3028 3027 3026 3025 3024 3023 3022 3020
3017 3017 3017 3018 3018 3018 3018 3018 3019 3019 3019 3019 3019 3019 3019 3020 3020 3020 3020 3019 3019 3018 3018 3018 3017 3017 3017 3017 3018 3019 3019 3019 3018 3017 3017 3017 3018 3019 3018 3017 3016 3016 3016 3016 3016 3017 3017 3018 3019 3020 3020 3020 3021 3021 3022 3024 3025 3025 3026 3026 3027 3028 3028 3029 3030 3030 3030 3030 3030 3030 3030 3030 3029 3029 3028 3027 3026 3025 3024 3024 3022 3021 3020 3019 3018
3014 3015 3015 3015 3015 3015 3016 3016 3016 3016 3016 3016 3016 3016 3016 3016 3016 3017 3016 3016 3016 3016 3015 3014 3014 3014 3014 3015 3015 3016 3016 3015 3015 3014 3014 3014 3014 3015 3015 3014 3013 3013 3013 3013 3013 3013 3013 3014 3015 3016 3016 3017 3017 3018 3019 3020 3021 3021 3022 3022 3023 3023 3025 3026 3026 3026 3026 3026 3026 3026 3026 3026 3026 3025 3025 3024 3023 3022 3022 3021 3020 3019 3018 3017 3016
3011 3012 3012 3012 3012 3013 3013 3013 3013 3013 3014 3014 3014 3014 3014 3014 3013 3014 3014 3013 3013 3013 3012 3012 3012 3011 3011 3012 3012 3012 3012 3012 3011 3010 3010 3010 3010 3011 3011 3011 3011 3010 3010 3010 3010 3010 3010 3010 3011 3012 3012 3013 3014 3015 3015 3016 3016 3017 3018 3018 3019 3020 3021 3022 3022 3022 3022 3022 3022 3023 3022 3022 3022 3022 3021 3021 3020 3019 3019 3018 3017 3016 3015 3014 3013
3009 3009 3010 3010 3011 3010 3010 3010 3010 3010 3011 3011 3011 3011 3011 3011 3011 3011 3011 3011 3010 3010 3010 3009 3009 3009 3008 3008 3009 3008 3008 3008 3008 3007 3007 3007 3007 3008 3008 3008 3008 3007 3007 3007 3006 3006 3006 3006 3007 3008 3009 3009 3010 3011 3011 3012 3013 3013 3014 3014 3015 3016 3017 3018 3018 3018 3018 3018 3018 3019 3019 3019 3019 3019 3018 3017 3017 3016 3015 3015 3014 3013 3012 3011 3010
3006 3006 3006 3007 3007 3008 3008 3008 3008 3008 3008 3008 3008 3008 3008 3008 3008 3009 3008 3008 3008 3008 3007 3007 3006 3006 3005 3005 3005 3005 3005 3004 3004 3004 3004 3005 3005 3005 3005 3005 3005 3005 3004 3004 3003 3003 3002 3003 3003 3004 3005 3006 3007 3008 3008 3009 3009 3010 3010 3011 3011 3012 3013 3014 3014 3014 3014 3014 3015 3015 3014 3014 3014 3014 3014 3014 3013 3013 3012 3011 3011 3010 3009 3008 3007
3005 3004 3003 3003 3003 3004 3004 3005 3005 3005 3005 3004 3005 3005 3005 3005 3005 3006 3005 3005 3005 3005 3005 3004 3003 3003 3003 3002 3002 3002 3002 3002 3002 3002 3002 3002 3002 3002 3001 3001 3001 3001 3001 3000 3000 2999 2999 2999 3000 3001 3002 3003 3004 3005 3005 3006 3006 3007 3007 3008 3008 3009 3010 3010 3010 3011 3011 3011 3011 3011 3011 3010 3010 3010 3010 3010 3010 3009 3009 3008 3007 3006 3005 3004 3004
3004 3003 3002 3001 3001 3001 3001 3001 3002 3003 3002 3001 3002 3002 3003 3002 3002 3003 3003 3002 3002 3002 3002 3001 3001 3001 3000 3000 3000 2999 2999 3000 3000 2999 2999 2999 2999 2999 2998 2998 2998 2997 2997 2996 2996 2996 2996 2996 2997 2999 3000 3001 3002 3002 3003 3003 3004 3004 3004 3005 3005 3006 3006 3007 3007 3007 3007 3007 3007 3007 3007 3007 3007 3007 3007 3007 3006 3005 3005 3004 3003 3003 3002 3001 3000
3001 3000 3000 2999 2999 2999 2999 2998 2999 2999 3000 2999 2999 3000 3000 3000 3000 3000 3000 2999 2999 2999 2999 2999 2998 2998 2998 2997 2997 2996 2996 2996 2996 2996 2996 2996 2996 2995 2995 2995 2995 2994 2994 2994 2994 2993 2993 2994 2995 2996 2998 2998 2999 3000 3001 3001 3001 3001 3002 3002 3003 3003 3003 3003 3003 3003 3003 3003 3003 3003 3003 3003 3003 3003 3003 3003 3002 3002 3001 3000 2999 2999 2998 2997 2996